Probability
0 0 0 0 0 0 0 0 0 0 0 0 0 0 0 0 0 0 0 0 0 3 3 3 3 3 3 6 3 0 0 0 0 0 0 0 0 0 0 0 0 0 0 0
0 0 0 0 0 0 0 0 0 0 0 0 0 0 0 0 0 0 0 0 0 0 3 0 3 0 3 6 3 0 0 0 0 0 0 0 0 0 0 0 0 0 0 0
0 0 0 0 0 0 0 0 0 0 0 0 0 0 0 0 0 0 0 0 0 0 3 3 3 3 0 0 3 0 0 0 0 0 0 0 0 0 0 0 0 0 0 0
0 0 0 0 0 0 0 0 0 0 0 0 0 0 0 0 0 0 0 0 0 3 3 3 3 0 0 0 0 0 0 0 0 0 0 0 0 0 0 0 0 0 0 0
0 0 0 0 0 0 0 0 0 0 0 0 0 0 0 0 0 0 0 0 3 3 3 3 0 0 0 0 0 0 0 0 0 0 0 0 0 0 0 0 0 3 3 0
0 0 0 0 0 0 0 0 0 0 0 0 0 0 0 0 0 0 0 0 3 3 3 3 0 0 0 0 0 0 0 0 0 0 0 0 0 0 0 0 0 0 0 3
0 0 0 0 0 0 0 0 0 0 0 0 0 0 0 0 0 0 0 0 3 3 3 0 0 0 0 0 0 0 3 0 0 0 0 0 0 3 0 0 0 0 0 0
0 0 0 0 0 0 0 0 0 0 0 0 0 0 0 0 0 0 0 0 3 3 3 0 0 0 0 0 0 3 3 3 0 0 0 0 0 0 0 0 0 0 0 0
0 0 0 0 0 0 0 0 0 0 0 0 0 0 0 0 0 0 0 0 3 3 0 0 0 0 0 0 3 3 3 3 3 0 0 0 0 0 0 0 3 0 0 0
0 0 0 0 0 0 0 0 0 0 0 0 0 0 0 0 0 0 0 3 3 0 0 0 0 3 3 3 3 3 3 3 0 0 0 0 0 0 0 0 0 0 0 0
0 0 0 0 0 0 0 0 0 0 0 0 0 0 0 0 0 0 0 0 0 0 0 0 0 0 0 0 3 3 0 0 0 0 0 0 0 0 0 0 0 0 0 0
0 0 0 0 0 0 0 0 0 0 0 0 0 0 0 3 0 0 0 0 0 0 0 0 0 0 0 0 3 0 0 0 0 0 0 0 0 0 0 0 0 0 0 0
0 0 0 0 0 0 0 0 0 0 0 0 0 0 3 0 0 0 0 0 0 0 0 0 0 0 0 0 0 0 0 0 0 0 0 0 0 0 0 0 0 0 0 0
0 0 0 0 0 0 0 0 0 0 0 0 0 0 0 0 0 0 0 0 0 0 0 0 0 0 0 0 0 0 0 0 0 0 0 0 0 0 0 0 0 0 0 0
0 0 0 0 0 0 0 0 0 0 0 0 0 0 0 0 0 0 0 0 0 0 0 0 0 0 0 0 0 0 0 0 0 0 0 0 0 0 0 0 0 0 0 0
0 0 0 0 0 0 0 0 0 0 0 0 0 0 0 0 0 0 0 0 0 0 0 0 0 0 0 0 0 0 0 0 0 0 0 0 0 0 0 0 0 0 0 0
0 0 0 0 0 0 0 0 0 0 0 0 0 0 0 0 0 0 0 0 0 0 0 0 0 0 0 0 0 0 0 0 0 0 0 0 0 0 0 0 0 0 0 0
0 0 0 0 0 0 0 0 0 0 0 0 0 0 0 0 0 0 0 0 0 0 0 0 0 0 0 0 0 0 0 0 0 0 0 0 0 0 0 0 0 0 0 0
0 0 0 0 0 0 0 0 0 0 0 0 0 0 0 0 0 0 0 0 0 0 0 0 0 0 0 0 0 0 0 0 0 0 0 0 0 0 0 0 0 0 0 0
0 0 0 0 0 0 0 0 0 0 0 0 0 0 0 0 0 0 0 0 0 0 0 0 0 0 0 0 0 0 0 0 0 0 0 0 0 0 0 0 0 0 0 0
0 0 0 0 0 0 0 0 0 0 0 0 0 0 0 0 0 0 0 0 0 0 0 0 0 0 0 0 0 0 0 0 0 0 0 0 0 0 0 3 0 0 0 0
0 0 0 0 0 0 0 0 0 0 0 0 0 0 0 0 0 0 0 0 0 0 0 0 0 0 0 0 0 0 0 0 0 0 0 0 0 0 0 0 0 0 0 0
0 0 0 0 0 0 0 0 0 0 0 0 0 0 0 0 0 0 0 0 0 0 0 0 0 0 0 0 0 0 0 0 0 0 0 0 0 0 0 0 0 0 0 0
0 0 0 0 0 0 0 0 0 0 0 0 0 0 0 0 0 0 0 0 0 0 0 0 0 0 0 0 0 0 0 0 0 0 0 0 0 0 0 0 0 0 0 0
0 0 0 0 0 0 3 3 3 3 3 3 0 0 0 0 0 0 0 0 0 0 0 0 0 0 0 0 0 0 0 0 0 0 0 0 0 0 0 0 0 0 0 0
0 0 0 0 0 3 3 3 3 3 3 3 0 0 0 0 0 0 0 0 0 0 0 0 0 0 0 0 0 0 0 0 0 0 0 0 0 0 0 0 0 0 0 0
0 0 0 0 0 0 0 3 3 3 3 3 0 0 0 0 0 0 0 0 0 0 0 0 0 0 0 0 0 0 0 0 0 0 0 0 0 0 0 0 0 0 0 0
Height
5826 5828 5829 5830 5832 5834 5835 5837 5838 5840 5840 5841 5841 5840 5841 5841 5841 5840 5840 5839 5839 5838 5838 5837 5836 5835 5835 5834 5833 5832 5831 5830 5829 5828 5827 5827 5827 5827 5827 5826 5827 5827 5827 5827
5820 5822 5822 5824 5826 5828 5829 5831 5832 5833 5835 5836 5835 5835 5835 5835 5836 5835 5835 5835 5834 5834 5834 5833 5832 5831 5830 5830 5829 5828 5828 5827 5825 5824 5823 5823 5822 5822 5822 5822 5822 5822 5822 5823
5813 5814 5815 5817 5821 5822 5823 5825 5826 5827 5829 5829 5829 5829 5830 5830 5830 5830 5830 5830 5829 5829 5829 5829 5828 5827 5826 5825 5825 5824 5823 5822 5821 5820 5819 5818 5818 5818 5818 5817 5818 5818 5818 5818
5806 5807 5808 5814 5814 5815 5816 5818 5819 5820 5821 5822 5823 5823 5823 5824 5824 5824 5824 5824 5824 5824 5824 5823 5823 5822 5821 5821 5820 5819 5818 5817 5816 5815 5814 5814 5813 5813 5813 5813 5813 5813 5814 5814
5798 5799 5801 5805 5806 5807 5808 5810 5812 5813 5814 5815 5816 5816 5816 5816 5817 5818 5818 5818 5818 5818 5818 5818 5817 5817 5816 5816 5815 5814 5813 5812 5811 5810 5809 5809 5808 5808 5808 5808 5808 5808 5809 5809
5791 5792 5794 5798 5799 5800 5802 5803 5805 5805 5806 5808 5808 5809 5810 5810 5810 5811 5811 5812 5812 5812 5812 5812 5811 5811 5810 5810 5809 5808 5807 5806 5805 5805 5804 5804 5803 5803 5803 5803 5803 5803 5803 5804
5783 5784 5786 5790 5791 5792 5794 5796 5797 5797 5798 5800 5800 5802 5802 5802 5802 5803 5804 5804 5805 5805 5805 5805 5804 5804 5804 5803 5803 5802 5801 5800 5799 5799 5799 5798 5798 5798 5797 5797 5797 5797 5798 5798
5776 5776 5781 5782 5783 5784 5786 5787 5788 5789 5790 5791 5792 5793 5794 5794 5795 5795 5796 5797 5797 5797 5798 5797 5797 5797 5797 5797 5796 5795 5794 5794 5793 5793 5792 5792 5792 5792 5792 5791 5791 5791 5792 5792
5769 5771 5773 5773 5774 5775 5776 5778 5779 5780 5782 5782 5783 5785 5786 5786 5787 5787 5788 5788 5789 5789 5789 5789 5789 5789 5789 5789 5788 5788 5787 5787 5786 5786 5786 5786 5786 5786 5786 5785 5785 5785 5785 5785
5760 5762 5763 5764 5765 5766 5768 5769 5769 5771 5772 5773 5774 5775 5776 5777 5778 5779 5779 5780 5780 5780 5780 5781 5780 5780 5780 5780 5780 5780 5780 5779 5779 5779 5779 5779 5779 5779 5779 5779 5779 5779 5779 5779
5752 5753 5753 5755 5756 5757 5758 5759 5760 5762 5763 5764 5764 5765 5766 5768 5769 5770 5770 5771 5771 5771 5771 5772 5771 5771 5771 5771 5772 5771 5771 5772 5772 5772 5772 5772 5772 5772 5772 5772 5772 5772 5772 5772
5743 5744 5744 5746 5747 5747 5749 5750 5751 5752 5753 5754 5755 5756 5756 5757 5759 5760 5760 5761 5761 5762 5762 5762 5762 5762 5762 5762 5762 5762 5762 5763 5763 5763 5763 5764 5764 5764 5764 5765 5765 5765 5765 5765
5733 5734 5734 5736 5737 5738 5739 5740 5741 5742 5743 5744 5745 5746 5746 5747 5748 5749 5750 5751 5751 5752 5752 5752 5752 5753 5753 5753 5753 5753 5753 5753 5753 5754 5754 5755 5755 5756 5757 5757 5757 5758 5758 5758
5722 5724 5725 5727 5728 5729 5729 5730 5731 5732 5733 5734 5735 5735 5736 5737 5738 5739 5740 5741 5741 5741 5742 5742 5742 5742 5743 5743 5743 5743 5743 5744 5744 5744 5745 5745 5746 5747 5748 5749 5749 5750 5750 5751
5714 5715 5716 5717 5718 5719 5720 5720 5721 5722 5723 5724 5725 5725 5726 5727 5728 5728 5729 5730 5730 5731 5732 5732 5732 5732 5732 5733 5733 5733 5734 5734 5734 5734 5735 5736 5737 5738 5739 5740 5741 5742 5742 5743
5704 5706 5707 5708 5709 5710 5710 5711 5711 5712 5713 5713 5714 5715 5715 5716 5717 5718 5718 5719 5720 5721 5721 5722 5722 5722 5722 5723 5723 5724 5725 5725 5726 5726 5727 5728 5728 5729 5731 5732 5733 5734 5735 5735
5695 5696 5697 5698 5699 5700 5700 5700 5701 5702 5703 5704 5704 5705 5705 5706 5707 5707 5708 5708 5709 5710 5711 5712 5712 5713 5713 5714 5714 5715 5716 5717 5717 5718 5719 5720 5720 5721 5722 5723 5725 5726 5727 5727
5685 5686 5687 5688 5688 5689 5690 5690 5691 5692 5692 5693 5694 5694 5695 5696 5696 5697 5698 5698 5699 5700 5701 5702 5703 5703 5704 5705 5706 5707 5708 5709 5710 5710 5711 5712 5712 5713 5714 5716 5717 5718 5719 5719
5676 5677 5677 5678 5678 5679 5679 5680 5681 5681 5682 5683 5684 5684 5685 5685 5686 5687 5687 5688 5689 5691 5692 5693 5693 5694 5695 5696 5697 5698 5699 5700 5702 5703 5703 5704 5705 5706 5707 5708 5709 5710 5710 5711
5666 5667 5668 5668 5669 5669 5670 5670 5671 5671 5672 5673 5674 5675 5675 5676 5676 5677 5677 5678 5679 5681 5682 5683 5684 5685 5686 5687 5688 5689 5691 5692 5694 5695 5696 5697 5697 5698 5699 5700 5701 5702 5703 5703
5657 5658 5658 5659 5659 5660 5660 5660 5661 5662 5663 5663 5664 5665 5665 5666 5667 5667 5667 5669 5670 5671 5672 5674 5675 5676 5677 5678 5680 5681 5683 5684 5686 5687 5688 5689 5690 5691 5692 5692 5693 5694 5695 5695
5647 5648 5649 5649 5650 5650 5651 5651 5651 5652 5653 5654 5655 5656 5656 5657 5658 5659 5659 5660 5661 5662 5664 5665 5667 5668 5669 5671 5672 5674 5675 5677 5678 5680 5681 5681 5682 5683 5684 5685 5686 5686 5687 5687
5638 5638 5639 5640 5640 5641 5641 5642 5643 5644 5645 5646 5646 5647 5648 5649 5650 5651 5652 5653 5654 5655 5656 5658 5659 5660 5662 5663 5665 5666 5667 5669 5670 5672 5673 5674 5674 5675 5676 5677 5678 5679 5679 5680
5628 5629 5630 5630 5631 5631 5632 5633 5634 5635 5636 5637 5638 5639 5640 5642 5643 5644 5645 5646 5647 5648 5650 5651 5652 5653 5654 5655 5657 5658 5660 5661 5662 5664 5665 5666 5667 5668 5669 5670 5670 5671 5671 5672
5619 5619 5620 5621 5621 5622 5623 5624 5625 5626 5627 5629 5630 5631 5632 5634 5635 5637 5638 5640 5641 5642 5643 5644 5645 5646 5647 5648 5650 5651 5652 5653 5654 5656 5657 5658 5659 5660 5661 5662 5662 5663 5663 5663
5609 5610 5611 5612 5612 5613 5614 5615 5617 5618 5619 5620 5622 5623 5625 5626 5628 5630 5631 5633 5634 5635 5636 5637 5638 5639 5640 5641 5642 5643 5644 5645 5646 5648 5649 5650 5651 5652 5653 5654 5654 5654 5655 5655
5600 5601 5602 5603 5604 5605 5606 5607 5608 5610 5611 5613 5614 5616 5617 5619 5621 5623 5625 5626 5627 5628 5629 5630 5631 5632 5633 5634 5635 5636 5637 5638 5639 5640 5641 5642 5643 5644 5644 5645 5646 5647 5647 5648
Wind_Speed
25 25 25 25 24 24 23 23 23 22 22 21 21 21 21 20 18 18 18 18 17 17 17 16 16 16 15 15 15 14 14 15 15 15 16 16 15 15 15 15 15 15 14 13
25 25 27 27 25 24 24 24 24 24 24 23 22 23 22 21 20 19 20 19 19 18 18 18 17 17 16 16 16 16 16 17 17 16 16 16 17 17 16 16 15 15 14 14
27 27 29 28 26 26 27 26 26 26 25 25 25 23 23 23 22 22 21 20 20 19 19 19 19 18 18 18 18 18 18 18 18 18 17 17 17 17 17 17 17 16 16 15
28 28 31 27 26 27 27 27 27 27 27 27 27 25 24 25 25 24 23 22 21 21 20 20 20 19 20 20 20 20 20 19 18 18 17 17 17 17 17 17 17 17 17 17
30 30 31 29 27 27 27 27 27 28 28 28 27 27 26 27 26 25 24 23 23 23 22 22 21 21 21 21 21 21 20 20 19 18 18 18 18 18 18 18 18 18 18 17
30 31 32 30 29 28 29 28 27 28 28 28 28 28 28 27 27 26 26 25 24 24 24 23 23 23 22 22 22 22 22 21 20 19 19 19 19 19 18 18 19 19 19 19
31 32 32 29 29 29 30 29 28 28 29 28 28 29 28 28 28 27 26 26 25 25 25 25 25 24 23 23 23 23 22 21 21 20 20 20 19 19 19 19 19 19 19 19
31 32 31 29 28 29 30 29 29 29 29 29 29 29 29 29 29 28 27 27 27 27 27 27 26 25 25 24 24 24 23 22 21 21 21 21 20 20 20 20 19 19 20 20
32 32 31 30 31 31 30 30 30 30 30 30 30 31 31 31 30 29 28 28 28 28 27 27 27 26 26 26 26 25 24 24 23 22 22 22 21 21 21 21 20 20 20 20
32 32 31 32 32 32 32 32 31 31 31 31 31 31 32 32 31 30 30 29 29 28 28 28 28 28 27 27 27 26 26 25 25 24 23 23 23 22 22 21 21 20 20 20
32 31 33 33 33 32 33 33 33 32 31 32 32 33 33 32 32 32 31 30 29 29 29 28 28 28 28 28 28 28 27 27 26 26 25 25 24 23 22 22 22 21 21 22
33 33 34 33 33 33 33 33 33 33 33 32 33 33 33 33 33 32 32 31 31 30 30 30 30 29 30 29 29 29 29 28 28 27 27 26 26 24 24 23 23 22 23 22
34 34 35 34 34 34 34 34 34 34 34 33 34 33 34 34 33 33 33 33 32 32 32 31 31 31 30 30 30 30 30 29 29 28 27 27 27 26 25 24 24 23 23 21
35 35 34 34 34 34 34 34 34 35 34 34 34 34 34 33 33 33 33 34 33 33 33 32 32 32 31 31 30 30 30 29 29 28 28 28 27 27 26 26 25 24 24 24
35 34 34 33 33 33 33 33 34 34 35 35 35 35 34 34 34 33 34 34 34 34 33 33 32 32 32 31 31 30 29 28 27 26 27 27 27 27 26 26 26 25 24 25
35 34 34 33 33 33 33 34 35 34 34 33 34 34 34 34 34 33 33 34 34 34 33 32 31 30 30 29 29 28 28 28 27 26 26 26 26 26 26 26 25 24 24 24
34 34 34 34 34 34 34 35 35 35 35 35 34 34 34 34 34 34 33 33 33 33 32 31 30 29 29 29 28 28 28 28 27 26 26 26 26 26 25 25 25 25 25 25
33 33 33 34 34 34 34 34 35 35 35 34 34 34 34 34 33 33 33 32 32 31 31 30 29 29 29 29 29 29 28 28 27 26 26 26 26 26 25 26 26 26 26 25
32 32 32 32 33 33 33 33 34 35 34 34 33 33 32 32 33 33 33 33 33 32 30 30 30 30 29 29 29 29 28 28 27 26 25 25 25 25 26 26 26 25 25 25
32 31 31 30 30 31 32 32 33 33 34 34 33 32 32 32 32 33 33 33 32 32 31 31 31 30 29 29 28 28 28 27 26 25 25 25 25 24 24 25 24 25 26 25
32 32 31 30 30 31 32 32 32 32 31 32 32 31 31 31 31 31 31 31 30 30 30 29 29 28 28 28 28 27 27 27 25 24 25 25 25 24 24 24 24 24 25 24
32 32 31 31 31 31 31 31 30 30 30 30 30 29 29 29 29 28 28 28 28 29 28 27 27 26 26 26 26 27 27 26 25 24 25 25 24 24 23 24 24 24 24 24
32 32 32 31 31 30 30 29 28 29 29 29 28 28 28 27 27 27 25 24 25 25 25 25 25 24 24 24 25 25 25 26 25 25 25 24 24 24 23 23 24 24 25 24
32 31 31 31 31 30 29 29 28 28 28 28 28 28 28 27 27 25 24 24 24 24 24 23 24 25 25 25 24 24 25 26 25 25 25 25 25 24 23 24 24 25 25 25
31 31 30 30 29 29 29 28 28 28 28 27 27 27 27 26 25 24 23 24 24 24 24 24 23 24 24 23 24 24 25 26 25 25 25 25 25 25 25 25 25 25 26 26
31 30 29 29 28 28 28 27 27 27 27 27 27 26 26 25 24 23 23 23 23 23 23 23 23 23 23 23 23 23 24 25 25 25 25 24 24 25 25 25 24 24 24 25
28 28 28 27 26 26 26 26 26 26 26 26 26 26 26 25 24 24 23 23 23 23 23 22 22 22 22 23 23 23 23 23 24 23 24 24 24 24 24 24 24 23 23 23
Wind_Direction
252 255 256 257 258 258 255 255 256 255 257 261 266 267 271 273 276 277 280 283 285 287 289 291 294 295 295 295 297 299 301 303 303 299 293 287 283 283 282 278 277 277 278 279
251 254 257 256 257 259 258 258 259 258 259 260 264 266 270 270 272 273 275 277 280 282 285 288 289 291 291 292 294 297 299 301 302 300 296 290 285 282 281 279 276 275 275 275
254 254 256 256 256 257 258 258 259 260 261 260 261 262 264 267 269 270 271 274 276 278 281 285 287 288 288 290 292 295 297 298 298 296 294 294 290 285 281 278 275 273 272 272
254 256 257 260 259 259 259 259 260 261 260 261 263 264 264 266 268 269 271 274 275 277 279 280 283 285 288 290 291 292 294 296 295 293 291 290 290 287 283 280 277 273 271 270
255 257 260 259 260 260 260 260 260 261 262 262 263 265 264 264 266 268 269 271 274 276 278 279 280 283 285 288 290 291 291 292 292 290 289 286 287 285 284 281 277 274 271 271
255 257 260 262 262 262 262 261 261 262 263 264 265 263 264 265 265 266 267 269 270 273 276 277 279 280 282 285 287 289 289 288 288 286 285 285 285 285 283 282 279 276 272 272
255 258 261 263 263 262 262 264 263 263 264 265 265 265 265 266 266 267 268 269 270 272 274 275 276 277 279 282 285 286 287 287 286 284 283 283 284 284 283 282 280 278 275 273
255 257 260 263 263 262 264 265 264 264 265 265 265 266 265 265 266 268 268 268 269 270 272 273 274 275 276 279 282 284 286 286 284 282 280 281 282 282 281 280 280 279 276 272
257 259 262 263 264 264 264 265 264 264 264 265 264 265 265 266 267 268 269 269 269 270 271 272 273 273 274 276 279 282 282 283 283 281 279 279 280 279 278 278 279 278 277 274
258 260 261 263 263 263 264 264 264 264 264 264 264 263 264 266 266 267 269 270 270 270 271 271 271 272 273 274 276 277 279 279 279 279 278 277 277 277 276 275 275 277 277 276
257 259 260 262 264 264 264 264 264 263 264 264 265 265 265 265 265 266 268 270 271 271 271 270 271 271 272 273 274 275 276 277 277 277 277 275 275 275 274 272 273 275 277 277
259 260 262 262 261 262 263 264 265 264 264 265 266 267 266 266 266 265 266 268 270 270 270 270 270 271 272 273 274 274 274 275 274 274 274 274 273 272 272 272 272 274 275 275
260 260 261 262 261 263 265 265 264 264 264 265 267 268 267 266 266 265 265 267 269 269 270 270 270 270 271 272 272 273 273 274 273 272 271 271 270 269 269 270 272 273 273 271
259 260 262 263 265 266 266 266 265 265 265 265 267 268 267 266 266 266 266 266 267 268 269 270 270 270 270 270 270 271 272 272 272 270 270 270 267 267 267 268 270 271 271 270
258 260 262 265 266 266 266 265 266 266 267 266 266 267 266 266 266 267 267 267 266 267 268 270 270 270 269 268 269 269 270 270 270 270 269 269 268 268 267 267 268 268 268 269
258 261 263 264 265 266 267 267 267 267 268 267 266 266 267 266 265 266 267 266 266 267 268 268 269 269 268 268 267 267 268 268 269 270 270 268 267 267 267 267 267 267 268 269
259 262 264 264 264 265 267 267 267 267 267 267 266 267 267 267 266 266 266 266 266 266 266 266 267 267 266 266 266 267 268 268 269 270 270 269 268 267 267 266 267 267 268 269
261 264 264 264 265 266 266 267 268 267 266 267 267 267 267 266 266 266 265 265 264 263 263 264 266 267 267 266 266 266 267 267 268 269 269 267 267 267 266 266 267 268 269 270
261 264 265 266 266 265 266 267 267 265 265 265 266 267 267 266 266 265 265 264 263 262 262 264 267 269 268 265 263 263 265 266 266 266 265 266 267 267 267 267 268 270 271 270
261 264 266 267 266 266 266 267 266 266 265 265 266 266 266 266 265 265 264 263 262 262 262 264 266 267 267 264 261 261 263 264 264 263 265 265 266 267 267 268 268 268 271 271
263 265 267 268 268 267 267 267 267 266 264 264 266 264 264 264 264 264 263 262 261 261 261 262 263 264 265 263 262 261 262 262 262 263 265 266 265 267 267 267 267 268 269 270
264 265 267 269 270 268 267 267 265 263 263 264 265 264 263 262 263 263 263 262 260 259 259 260 261 262 262 262 261 261 260 260 260 261 264 265 265 265 265 266 268 268 269 271
265 265 266 267 268 268 267 265 263 262 262 263 263 263 262 261 261 261 261 259 257 257 258 259 259 259 260 260 260 260 260 259 260 261 263 264 264 263 263 266 270 271 271 272
265 265 265 266 266 266 265 263 262 262 262 263 261 260 259 259 259 258 257 256 257 258 259 259 259 259 259 260 260 259 261 261 261 261 261 262 261 260 263 266 270 272 272 272
265 265 264 264 264 263 262 261 261 262 261 261 260 259 257 256 255 254 253 255 256 259 258 257 258 258 257 257 258 260 262 262 261 261 261 262 261 261 263 266 270 270 270 271
264 263 264 264 263 261 261 260 260 261 259 258 257 256 254 252 252 251 252 254 257 259 258 258 259 258 257 257 259 261 263 262 261 260 258 258 260 262 263 265 267 268 269 271
260 260 261 261 260 260 260 260 260 259 258 258 258 255 251 249 250 250 250 254 258 258 258 259 259 257 257 259 262 264 265 263 260 258 257 257 260 262 262 261 262 265 267 269